Regional Weather Roundup
Issued by NWS

Home | Current Version | Previous Version | Graphics & Text | Print | Product List | Glossary On
Versions: 1 2 3 4 5 6 7 8 9 10 11 12 13 14 15 16 17 18 19 20 21 22 23 24 25 26 27 28 29 30 31 32 33 34 35 36 37 38 39 40 41 42 43 44 45 46 47 48 49 50
000
ASUS43 KMKX 270420
RWRWI

WISCONSIN REGIONAL WEATHER ROUNDUP
NATIONAL WEATHER SERVICE MILWAUKEE/SULLIVAN WI
1100 PM CDT THU APR 26 2018

NOTE: "FAIR" INDICATES FEW OR NO CLOUDS BELOW 12,000 FEET WITH NO
SIGNIFICANT WEATHER AND/OR OBSTRUCTIONS TO VISIBILITY.

WIZ001-002-006>008-014>016-023>028-270500-
NORTHWEST WISCONSIN

CITY           SKY/WX    TMP DP  RH WIND       PRES   REMARKS
SUPERIOR ARPT  FAIR      31  28  89 CALM      29.90F
ASHLAND        FAIR      31  30  96 W3        29.90S
HAYWARD        FAIR      34  26  72 CALM      29.90R
SIREN          FAIR      42  22  45 NW6       29.91F
CUMBERLAND     FAIR      37  27  65 NW6       29.90R WCI  33
RICE LAKE      MOCLDY    39  33  77 CALM      29.91S
CHETEK         FAIR      38  32  79 CALM      29.90S
LADYSMITH      FAIR      38  32  79 MISG      29.90S
EAU CLAIRE     FAIR      45  35  68 CALM      29.89R
MENOMONIE      FAIR      49  31  50 W7        29.90S
NEW RICHMOND   FAIR      44  27  50 NW7       29.92S
OSCEOLA        FAIR      48  25  40 N3        29.95S
$$

WIZ003>005-009-010-017-018-270500-
NORTH CENTRAL WISCONSIN

CITY           SKY/WX    TMP DP  RH WIND       PRES   REMARKS
MANITOWISH WTR FAIR      30  30 100 CALM      29.88S
ARBOR VITAE    FAIR      32  30  94 CALM      29.88S
WOODRUFF       FAIR      32  30  94 CALM      29.88S
RHINELANDER    FAIR      35  33  92 CALM      29.87F
EAGLE RIVER    FAIR      32  31  99 CALM      29.86F
LAND O LAKES   FAIR      29  29  97 CALM      29.88F
PHILLIPS       FAIR      31  27  87 CALM      29.87F
TOMAHAWK       FAIR      29  28  94 CALM      29.89S
MEDFORD        FAIR      35  32  87 NE3       29.87F
MERRILL        FAIR      37  33  84 CALM      29.88S
$$

WIZ029-030-035-036-043>047-270500-
CENTRAL WISCONSIN

CITY           SKY/WX    TMP DP  RH WIND       PRES   REMARKS
WAUSAU         FAIR      42  33  70 N8        29.85F
MOSINEE        FAIR      41  32  70 N8        29.88S
MARSHFIELD     FAIR      43  34  70 NE8       29.86S
STEVENS POINT  CLOUDY    44  32  63 N10       29.87S
WAUPACA        CLOUDY    50  36  57 NW9       29.85R
WAUTOMA        FAIR      48  35  60 N13       29.84R
WISC RAPIDS    FAIR      47  31  53 N14G23    29.87R
CAMP DOUGLAS   FAIR      48  35  59 N7        29.86R
$$

WIZ011>013-019>022-031-037>040-048>050-270500-
NORTHEAST WISCONSIN

CITY           SKY/WX    TMP DP  RH WIND       PRES   REMARKS
ANTIGO         FAIR      38  34  82 N8        29.86S WCI  33
SHAWANO        CLOUDY    47  37  66 N9        29.86R
OCONTO         CLOUDY    46  33  62 NE10G17   29.84S
STURGEON BAY   FAIR      41  33  73 N21G28    29.84F
GREEN BAY      CLOUDY    43  35  73 NE18G28   29.83R
MANITOWOC      LGT RAIN  45  33  63 N16G28    29.81R
APPLETON       MOCLDY    52  30  43 N23G29    29.79R
CLINTONVILLE   CLOUDY    49  35  60 N12       29.84S
OSHKOSH        CLOUDY    54  36  50 N16       29.80R
$$

WIZ032>034-041-042-053>061-270500-
SOUTHWEST WISCONSIN

CITY           SKY/WX    TMP DP  RH WIND       PRES   REMARKS
LA CROSSE      FAIR      56  36  47 N10G22    29.87R
SPARTA         FAIR      50  36  58 N9        29.89R
VIROQUA        FAIR      51  37  59 N14       29.85R
BOSCOBEL       FAIR      58  37  45 NW3       29.83R
PRAIRIE DU CHI FAIR      55  32  41 NW5       29.84S
PLATTEVILLE    FAIR      54  42  64 W8        29.82S
$$

WIZ056-057-062-063-064-067-068-270500-
SOUTH CENTRAL WISCONSIN

CITY           SKY/WX    TMP DP  RH WIND       PRES   REMARKS
REEDSBURG      FAIR      52  35  52 N8        29.83R
BARABOO/DELLS  MOCLDY    52  33  48 N15G23    29.82S
LONE ROCK      FAIR      58  38  47 N17       29.82R
MINERAL POINT  FAIR      54  41  62 W7        29.81S
MADISON        MOCLDY    59  33  37 W6        29.77S
MIDDLETON      MOCLDY    58  35  41 W12G17    29.79S
WATERTOWN      CLOUDY    51  35  53 CALM      29.76F
MONROE         MOCLDY    57  34  41 W12       29.79S
JANESVILLE     MOCLDY    52  32  46 SW3       29.78S
$$

WIZ051-052-058>065-066-070>072-270500-
SOUTHEAST WISCONSIN

CITY           SKY/WX    TMP DP  RH WIND       PRES   REMARKS
MILWAUKEE      CLOUDY    52  28  39 S7        29.77F
WAUKESHA       FAIR      52  28  40 S5        29.78S
MILWAUKEE/TIMM FAIR      50  28  43 S5        29.77F
RACINE         MOCLDY    51  28  41 S7        29.79F
BURLINGTON     FAIR      51  32  48 CALM      29.77F
KENOSHA        CLOUDY    52  29  41 S8        29.78F
FOND DU LAC    CLOUDY    55  35  47 N23G29    29.80R
SHEBOYGAN      MOCLDY    45  37  73 S7        29.74F
WEST BEND      FAIR      50  30  46 SW3       29.75F
JUNEAU         CLOUDY    56  36  47 NW9G20    29.79R
$$

LSZ147-162-270500-
LAKE SUPERIOR

STATION/POSITION TIME  TEMP    WIND        PRES    WAVE
                       AIR SEA DIR/SP/G            HT/PER
                 (UTC) (F)     (DEG/KT/KT) (MB)    (FT/S)
DEVILS ISLAND    0400   43     210/  2/  2 1012.8F
SAXON HARBOR     0340   33     180/  2/  3 1012.2R
$$

LMZ867-665-643>646-270500-
LAKE MICHIGAN

STATION/POSITION TIME  TEMP    WIND        PRES    WAVE
                       AIR SEA DIR/SP/G            HT/PER
                 (UTC) (F)     (DEG/KT/KT) (MB)    (FT/S)
NORTHPORT PIER   0340   37                 1011.2S
KEWAUNEE LAKESHO 0354   41      20/ 11/ 15 1009.4R
SHEBOYGAN LAKESH 0400   47     200/  8/  9 1007.6F
PORT WASHINGTON  0340   44     170/  6/  7 1008.8F
MILWAUKEE LAKESH 0400   52     200/  6/  7   N/A
KENOSHA   LAKESH 0400   47                 1008.5
$$

TC  - TEMPERATURE IN CELSIUS
VSB - VISIBILITY IN STATUTE MILES
WCI - WIND CHILL INDEX
HX  - HEAT INDEX





USA.gov is the U.S. government's official web portal to all federal, state and local government web resources and services.